Regional Weather Roundup
Issued by NWS

Home | Current Version | Previous Version | Graphics & Text | Print | Product List | Glossary On
Versions: 1 2 3 4 5 6 7 8 9 10 11 12 13 14 15 16 17 18 19 20 21 22 23 24 25 26 27 28 29 30 31 32 33 34 35 36 37 38 39 40 41 42 43 44 45 46 47 48 49 50
000
ASUS45 KCYS 161910
RWRWY

WYOMING REGIONAL WEATHER ROUNDUP
NATIONAL WEATHER SERVICE CHEYENNE WY
100 PM MDT WED AUG 16 2017

NOTE:  "FAIR" INDICATES FEW OR NO CLOUDS BELOW 12,000 FEET
WITH NO SIGNIFICANT WEATHER AND/OR OBSTRUCTIONS TO VISIBILITY.

WYZ001-162000-
YELLOWSTONE NATIONAL PARK

CITY           SKY/WX    TMP DP  RH WIND       PRES   REMARKS
LK YELLOWSTONE   N/A     58  46  64 CALM      30.26F
W YELLOWSTONE  NOT AVBL

$$
WYZ002>013-054>058-071-098>099-162000-
NORTHERN WYOMING

CITY           SKY/WX    TMP DP  RH WIND       PRES   REMARKS
JACKSON        FAIR      70  42  36 VRB7      30.20F
CODY           FAIR      80  33  18 VRB6      30.06F
GREYBULL       FAIR      81  43  26 SE10      30.01
WORLAND        FAIR      78  45  30 NW3       30.03F
SHERIDAN       FAIR      83  35  18 VRB3      30.01F
BUFFALO        FAIR      77  32  19 VRB5      30.08F
GILLETTE       FAIR      77  33  20 VRB5      30.05F
HULETT         FAIR      73  45  35 E5        30.08S
NEWCASTLE      FAIR      73  36  25 W12G20    30.05F

$$
WYZ014>020-022>026-101>103-162000-
CENTRAL WYOMING

CITY           SKY/WX    TMP DP  RH WIND       PRES   REMARKS
BIG PINEY      FAIR      68  39  34 VRB6      30.24F
PINEDALE       FAIR      68  34  28 CALM      30.25F
DUBOIS         FAIR      70  30  23 NW12      30.21S
LANDER           N/A    N/A N/A N/A MISG      30.11F
RIVERTON       FAIR      72  46  39 SE7       30.12F
CASPER         FAIR      73  41  31 SW8       30.12F
DOUGLAS        FAIR      72  41  32 VRB7      30.12S

$$
WYZ021-027>030-104>119-162000-
SOUTHERN WYOMING

CITY           SKY/WX    TMP DP  RH WIND       PRES   REMARKS
EVANSTON       FAIR      73  32  22 MISG      30.25S
KEMMERER         N/A     70  30  23 W5        30.26S
FORT BRIDGER   FAIR      72  35  26 NW3       30.27F
ROCK SPRINGS   FAIR      68  42  38 MISG      30.23F
RAWLINS        FAIR      67  39  35 SW3G16    30.22F
SARATOGA       FAIR      64  39  39 NW6       30.24F
LARAMIE        FAIR      65  37  35 N12G22    30.22S
CHEYENNE       FAIR      68  35  29 N14G22    30.16F
TORRINGTON     FAIR      74  44  34 NW9       30.06S
PINE BLUFFS    FAIR      70  41  35 N13G22    30.13S

$$



USA.gov is the U.S. government's official web portal to all federal, state and local government web resources and services.